This is the latest recevied weather packets stored in our database for station/object UA1CAS-13. If no packets are shown the sender has not sent any weather packets the latest 10 day(s).
| Time | Temp. | Humidity | Pressure | Rain* | Wind** | Luminosity | Snow |
|---|---|---|---|---|---|---|---|
| 1778279022 | 5° C | 78% | 1027 hPa | - | - | - | - |
| 1778278121 | 5.56° C | 73% | 1027 hPa | - | - | - | - |
| 1778277220 | 6.67° C | 74% | 1027 hPa | - | - | - | - |
| 1778276319 | 6.67° C | 74% | 1027 hPa | - | - | - | - |
| 1778275418 | 6.67° C | 72% | 1026 hPa | - | - | - | - |
| 1778274517 | 6.67° C | 69% | 1026 hPa | - | - | - | - |
| 1778273616 | 7.22° C | 66% | 1026 hPa | - | - | - | - |
| 1778272715 | 7.78° C | 65% | 1026 hPa | - | - | - | - |
| 1778271814 | 7.78° C | 64% | 1026 hPa | - | - | - | - |
| 1778270912 | 7.78° C | 64% | 1026 hPa | - | - | - | - |
| 1778270011 | 7.78° C | 63% | 1026 hPa | - | - | - | - |
| 1778269110 | 8.33° C | 62% | 1026 hPa | - | - | - | - |
| 1778268209 | 8.33° C | 59% | 1025 hPa | - | - | - | - |
| 1778266303 | 8.89° C | 59% | 1025 hPa | - | - | - | - |
| 1778265402 | 9.44° C | 56% | 1025 hPa | - | - | - | - |
| 1778264501 | 10.56° C | 52% | 1025 hPa | - | - | - | - |
| 1778263600 | 11.11° C | 48% | 1025 hPa | - | - | - | - |
| 1778262699 | 11.67° C | 45% | 1024 hPa | - | - | - | - |
| 1778261798 | 12.22° C | 42% | 1024 hPa | - | - | - | - |
| 1778260896 | 12.78° C | 40% | 1024 hPa | - | - | - | - |
| 1778259995 | 12.78° C | 39% | 1024 hPa | - | - | - | - |
| 1778259094 | 12.78° C | 39% | 1024 hPa | - | - | - | - |
| 1778258193 | 12.78° C | 38% | 1024 hPa | - | - | - | - |
| 1778257292 | 12.78° C | 37% | 1024 hPa | - | - | - | - |
| 1778256391 | 12.78° C | 37% | 1024 hPa | - | - | - | - |
* Rain since midnight (hover to see other rain measurements)
** Current wind speed in m/s (hover to see current wind gust speed)